Powrót do katalogu

SL-14 DEB

AktywnyPO
NORAD 25226·DEBRIS·🇷🇺 Russia

Wystrzelony Aug 18, 1987 z Plesetsk Cosmodrome

Loading…

Następne Przeloty (najbliższe 24 godziny)

TLE

ŚwieżeSource: Space-Track

Epoka: Sep 14, 2026, 13:04 UTC

1 25226U 87068BD  26257.54455495  .00003004  00000-0  13260-2 0  9990
2 25226  82.5105  96.1093 0049677 275.2079  84.3434 14.22419567450863

Śledź SL-14 DEB w czasie rzeczywistym z AllMySat

Download on the App Store